Regional Weather Roundup
Issued by NWS

Home | Current Version | Previous Version | Text Only | Print | Product List | Glossary On
Versions: 1 2 3 4 5 6 7 8 9 10 11 12 13 14 15 16 17 18 19 20 21 22 23 24 25 26 27 28 29 30 31 32 33 34 35 36 37 38 39 40 41 42 43 44 45 46 47 48 49 50
000
ASUS46 KSEW 061510
RWRWA

WASHINGTON REGIONAL WEATHER ROUNDUP
NATIONAL WEATHER SERVICE SEATTLE WA
800 AM PDT WED MAY 06 2015

NOTE:"FAIR" INDICATES FEW OR NO CLOUDS BELOW 12,000 FEET WITH NO
SIGNIFICANT WEATHER AND/OR OBSTRUCTIONS TO VISIBILITY.

WAZ505-507>509-061600-
SEATTLE, TACOMA, EVERETT, AND VICINITY

CITY           SKY/WX    TMP DP  RH WIND       PRES   REMARKS
EVERETT        CLOUDY    46  41  82 NW6       30.13S
BOEING FIELD   CLOUDY    51  43  74 NE5       30.15R
RENTON         CLOUDY    47  43  86 CALM      30.15R
SEATAC AIRPORT PTSUNNY   48  44  86 N5        30.14S
JBLM-MCCHORD   CLOUDY    46  46 100 W3        30.14R
PUYALLUP       CLOUDY    46  46 100 CALM      30.14R
BREMERTON      CLOUDY    43  43 100 CALM      30.17R VSB<1/4
JBLM-FT LEWIS  CLOUDY    46  45  99 W6        30.13R
TACOMA NARROWS FOG       44  42  93 NW6       30.14S VSB 1/2
$$

WAZ001-503-506-510-514-515-061600-
NORTH INTERIOR

CITY           SKY/WX    TMP DP  RH WIND       PRES   REMARKS
BELLINGHAM     CLOUDY    48  43  81 CALM      30.14R
FRIDAY HARBOR  CLOUDY    46  44  93 CALM      30.14R
EASTSOUND      PTSUNNY   48  45  87 CALM      30.12R
PORT ANGELES   PTSUNNY   46  37  71 W9G21     30.14R
NAS WHIDBEY    LGT RAIN  51  45  79 W3        30.14R
ARLINGTON      CLOUDY    43  37  81 CALM      30.16S
BURLINGTON     MOSUNNY   45  45 100 CALM      30.14S
$$

WAZ020-022-039-040-504-511-512-061600-
SOUTHWEST INTERIOR

CITY           SKY/WX    TMP DP  RH WIND       PRES   REMARKS
SHELTON        SUNNY     41  40  96 CALM      30.13R
OLYMPIA        FOG       42  42 100 CALM      30.15R VSB 1/4
CHEHALIS       CLOUDY    45  45 100 NE5       30.15R FOG
KELSO          CLOUDY    46  43  87 NW5       30.18R
VANCOUVER      LGT RAIN  49  44  83 CALM      30.12R
SCAPPOOSE, OR  CLOUDY    48  44  86 N5        30.13R
PORTLAND, OR   LGT RAIN  49  46  90 NE5       30.13R
$$

WAZ021-516-517-061600-
WASHINGTON COAST

CITY           SKY/WX    TMP DP  RH WIND       PRES   REMARKS
FORKS          MOSUNNY   43  41  93 E6        30.15R
HOQUIAM        FOG       42  42 100 E3        30.15S VSB 1/4
ASTORIA, OR    CLOUDY    48  46  93 NE3       30.14R
$$

WAZ019-023-024-040-518-519-061600-
CASCADE MOUNTAINS AND COLUMBIA GORGE

CITY           SKY/WX    TMP DP  RH WIND       PRES   REMARKS
TROUTDALE, OR  LGT RAIN  49  45  86 E5        30.12R
THE DALLES, OR MOSUNNY   53  39  59 W9        30.06R
$$

WAZ026-027-041>044-520-521-061600-
EAST SLOPES

CITY           SKY/WX    TMP DP  RH WIND       PRES   REMARKS
OMAK           SUNNY     46  32  58 N10       30.03R
WENATCHEE      SUNNY     48  29  47 NW10      30.03R
ELLENSBURG     SUNNY     47  32  56 NW16G25   30.01R
YAKIMA         SUNNY     51  32  48 N7        30.03R
$$

WAZ028-034-035-061600-
COLUMBIA BASIN

CITY           SKY/WX    TMP DP  RH WIND       PRES   REMARKS
EPHRATA        SUNNY     51  27  39 N13       29.99S
MOSES LAKE     SUNNY     44  29  55 NE6       30.01R
PASCO          SUNNY     50  36  58 SE3       30.04R
HERMISTON, OR  SUNNY     50  36  58 SW10      30.03S
$$

WAZ036>038-061600-
NORTHEAST WASHINGTON

CITY           SKY/WX    TMP DP  RH WIND       PRES   REMARKS
SPOKANE GEIGER MOSUNNY   42  29  59 S6        29.99R
SPOKANE FELTS  MOSUNNY   46  29  51 S6        30.00R
FAIRCHILD AFB  SUNNY     43  30  59 SW6       29.98R
COEURDALENE,ID SUNNY     46  32  57 S6        29.99R
DEER PARK      SUNNY     42  30  62 MISG      29.99S
$$

WAZ029>033-061600-
SOUTHEAST WASHINGTON

CITY           SKY/WX    TMP DP  RH WIND       PRES   REMARKS
PULLMAN        SUNNY     44  32  62 W5        30.01S
LEWISTON, ID   PTSUNNY   47  31  53 CALM      30.01R
WALLA WALLA    SUNNY     51  34  52 SW15      30.02S
PENDLETON, OR  MOSUNNY   46  33  60 W3        30.03R
$$


USA.gov is the U.S. government's official web portal to all federal, state and local government web resources and services.